Weather History for Devils Lake, ND

Change the Weather History Date:

Saturday, October 6, 2012

  Actual Average Record
Temperature  
Mean Temperature 37 °F -  
Max Temperature 44 °F 57 °F 86 °F (1961)
Min Temperature 30 °F 34 °F 19 °F (1976)
Degree Days  
Heating Degree Days 28    
Moisture  
Dew Point 26 °F    
Average Humidity 68    
Maximum Humidity 87    
Minimum Humidity 39    
Precipitation  
Precipitation 0.00 in - - ()
Sea Level Pressure  
Sea Level Pressure 30.31 in    
Wind  
Wind Speed 11 mph (NW)    
Max Wind Speed 16 mph    
Max Gust Speed 21 mph    
Visibility 10 miles    
Events      
Averages and records for this station are not official NWS values.
T = Trace of Precipitation, MM = Missing Value Source: NWS Daily Summary

Daily Weather History Graph

Daily Weather History Graph

Search for Another Location

Airport:

Trip Planner

Search our weather history database for the weather conditions in past years. The results will help you decide how hot, cold, wet, or windy it might be!

Date:

Astronomy

Oct. 06, 2012 Rise Set
Actual Time 7:42 AM CDT 7:03 PM CDT
Civil Twilight 7:11 AM CDT 7:34 PM CDT
Nautical Twilight 6:35 AM CDT 8:10 PM CDT
Astronomical Twilight 5:59 AM CDT 8:46 PM CDT
Moon 11:00 PM CDT (10/6) 1:59 PM CDT (10/6)
Length of Visible Light 12h 22m
Length of Day
11h 20m
Waning Gibbous, 65% of the Moon is Illuminated
Oct 6
Waning Gibbous
Oct 8
Last Quarter
Oct 15
New
Oct 21
First Quarter
Oct 29
Full

Hourly Weather History & Observations

Time (CDT) Temp. Windchill Dew Point Humidity Pressure Visibility Wind Dir Wind Speed Gust Speed Precip Events Conditions
12:15 AM 33.8 °F 23.5 °F 26.6 °F 75% 30.32 in 10.0 mi North 16.1 mph 20.7 mph N/A   Overcast
12:35 AM 33.8 °F 23.5 °F 26.6 °F 75% 30.32 in 10.0 mi North 16.1 mph - N/A   Overcast
12:55 AM 33.8 °F 25.8 °F 26.6 °F 75% 30.32 in 10.0 mi North 10.4 mph - N/A   Overcast
1:15 AM 33.8 °F 25.3 °F 26.6 °F 75% 30.32 in 10.0 mi North 11.5 mph - N/A   Overcast
1:35 AM 33.8 °F 25.8 °F 28.4 °F 81% 30.32 in 10.0 mi North 10.4 mph - N/A   Overcast
1:55 AM 33.8 °F 27.0 °F 28.4 °F 81% 30.32 in 10.0 mi North 8.1 mph - N/A   Overcast
2:15 AM 33.8 °F 26.4 °F 28.4 °F 81% 30.32 in 10.0 mi North 9.2 mph - N/A   Overcast
2:35 AM 33.8 °F 27.0 °F 28.4 °F 81% 30.33 in 10.0 mi North 8.1 mph - N/A   Overcast
2:55 AM 33.8 °F 25.8 °F 26.6 °F 75% 30.33 in 10.0 mi North 10.4 mph 16.1 mph N/A   Overcast
3:15 AM 33.8 °F 26.4 °F 26.6 °F 75% 30.33 in 10.0 mi North 9.2 mph - N/A   Overcast
3:35 AM 33.8 °F 26.4 °F 26.6 °F 75% 30.33 in 10.0 mi North 9.2 mph - N/A   Overcast
3:55 AM 33.8 °F 27.0 °F 28.4 °F 81% 30.33 in 10.0 mi North 8.1 mph - N/A   Overcast
4:15 AM 33.8 °F 26.4 °F 26.6 °F 75% 30.32 in 10.0 mi North 9.2 mph - N/A   Overcast
4:35 AM 33.8 °F 29.6 °F 26.6 °F 75% 30.32 in 10.0 mi North 4.6 mph - N/A   Overcast
4:55 AM 32.0 °F 26.4 °F 26.6 °F 80% 30.32 in 10.0 mi NNW 5.8 mph - N/A   Overcast
5:15 AM 33.8 °F 30.8 °F 26.6 °F 75% 30.33 in 10.0 mi NNW 3.5 mph - N/A   Overcast
5:35 AM 33.8 °F 29.6 °F 28.4 °F 81% 30.33 in 10.0 mi NNW 4.6 mph - N/A   Overcast
5:55 AM 33.8 °F 28.6 °F 28.4 °F 81% 30.33 in 10.0 mi North 5.8 mph - N/A   Overcast
6:15 AM 33.8 °F 28.6 °F 26.6 °F 75% 30.33 in 10.0 mi NW 5.8 mph - N/A   Overcast
6:35 AM 32.0 °F 25.6 °F 28.4 °F 87% 30.33 in 10.0 mi WNW 6.9 mph - N/A   Mostly Cloudy
6:55 AM 32.0 °F 25.6 °F 28.4 °F 87% 30.33 in 10.0 mi WNW 6.9 mph - N/A   Overcast
7:15 AM 30.2 °F 21.9 °F 26.6 °F 86% 30.34 in 10.0 mi NW 9.2 mph - N/A   Overcast
7:35 AM 30.2 °F 23.4 °F 26.6 °F 86% 30.34 in 10.0 mi WNW 6.9 mph - N/A   Overcast
7:55 AM 30.2 °F 21.9 °F 26.6 °F 86% 30.34 in 10.0 mi WNW 9.2 mph - N/A   Overcast
8:15 AM 30.2 °F 23.4 °F 24.8 °F 80% 30.34 in 10.0 mi NW 6.9 mph - N/A   Mostly Cloudy
8:35 AM 30.2 °F 21.9 °F 26.6 °F 86% 30.34 in 10.0 mi NW 9.2 mph - N/A   Partly Cloudy
8:55 AM 32.0 °F 24.8 °F 26.6 °F 80% 30.34 in 10.0 mi WNW 8.1 mph - N/A   Clear
9:15 AM 33.8 °F 27.7 °F 26.6 °F 75% 30.34 in 10.0 mi WNW 6.9 mph - N/A   Clear
9:35 AM 35.6 °F 29.2 °F 26.6 °F 70% 30.34 in 10.0 mi WNW 8.1 mph - N/A   Clear
9:55 AM 35.6 °F 28.0 °F 28.4 °F 75% 30.34 in 10.0 mi West 10.4 mph - N/A   Clear
10:15 AM 37.4 °F 29.3 °F 28.4 °F 70% 30.35 in 10.0 mi West 12.7 mph - N/A   Clear
10:35 AM 37.4 °F 29.3 °F 26.6 °F 65% 30.34 in 10.0 mi West 12.7 mph - N/A   Clear
10:55 AM 37.4 °F 28.9 °F 26.6 °F 65% 30.34 in 10.0 mi West 13.8 mph - N/A   Clear
11:15 AM 37.4 °F 28.9 °F 26.6 °F 65% 30.34 in 10.0 mi West 13.8 mph - N/A   Clear
11:35 AM 37.4 °F 28.9 °F 26.6 °F 65% 30.34 in 10.0 mi West 13.8 mph - N/A   Clear
11:55 AM 39.2 °F 31.2 °F 26.6 °F 61% 30.33 in 10.0 mi West 13.8 mph 17.3 mph N/A   Clear
12:15 PM 39.2 °F 32.0 °F 26.6 °F 61% 30.32 in 10.0 mi West 11.5 mph 19.6 mph N/A   Clear
12:35 PM 39.2 °F 30.8 °F 26.6 °F 61% 30.32 in 10.0 mi West 15.0 mph - N/A   Clear
12:55 PM 41.0 °F 33.5 °F 26.6 °F 57% 30.32 in 10.0 mi WNW 13.8 mph 19.6 mph N/A   Clear
1:15 PM 42.8 °F 35.4 °F 26.6 °F 53% 30.31 in 10.0 mi West 15.0 mph - N/A   Clear
1:35 PM 41.0 °F 33.1 °F 23.0 °F 49% 30.29 in 10.0 mi West 15.0 mph 20.7 mph N/A   Clear
1:55 PM 42.8 °F 36.2 °F 23.0 °F 46% 30.28 in 10.0 mi WNW 12.7 mph - N/A   Clear
2:15 PM 42.8 °F 36.2 °F 21.2 °F 42% 30.27 in 10.0 mi WNW 12.7 mph - N/A   Clear
2:35 PM 42.8 °F 35.8 °F 23.0 °F 46% 30.27 in 10.0 mi West 13.8 mph 19.6 mph N/A   Clear
2:55 PM 42.8 °F 35.8 °F 21.2 °F 42% 30.25 in 10.0 mi WNW 13.8 mph 17.3 mph N/A   Clear
3:15 PM 44.6 °F 37.8 °F 21.2 °F 39% 30.24 in 10.0 mi WNW 15.0 mph - N/A   Clear
3:35 PM 44.6 °F 38.4 °F 21.2 °F 39% 30.24 in 10.0 mi West 12.7 mph - N/A   Clear
3:55 PM 44.6 °F 38.1 °F 21.2 °F 39% 30.23 in 10.0 mi West 13.8 mph 19.6 mph N/A   Clear
4:15 PM 44.6 °F 38.4 °F 21.2 °F 39% 30.21 in 10.0 mi West 12.7 mph 18.4 mph N/A   Clear
4:35 PM 44.6 °F 38.1 °F 21.2 °F 39% 30.20 in 10.0 mi West 13.8 mph - N/A   Clear